TimeCDT,TemperatureF,Dew PointF,Humidity,Sea Level PressureIn,VisibilityMPH,Wind Direction,Wind SpeedMPH,Gust SpeedMPH,PrecipitationIn,Events,Conditions,WindDirDegrees,DateUTC
12:53 AM,82.0,59.0,45,29.87,10.0,SE,15.0,20.7,N/A,,Clear,140,2013-08-05 05:53:00
1:53 AM,81.0,59.0,47,29.86,10.0,SSE,15.0,23.0,N/A,,Clear,150,2013-08-05 06:53:00
2:53 AM,80.1,59.0,48,29.86,10.0,SSE,13.8,-,N/A,,Clear,150,2013-08-05 07:53:00
3:53 AM,80.1,59.0,48,29.86,10.0,SSE,13.8,-,N/A,,Clear,160,2013-08-05 08:53:00
4:53 AM,78.1,59.0,52,29.86,10.0,SSE,10.4,-,N/A,,Clear,150,2013-08-05 09:53:00
5:53 AM,75.9,59.0,56,29.87,10.0,SSE,8.1,-,N/A,,Clear,150,2013-08-05 10:53:00
6:53 AM,75.0,59.0,57,29.88,10.0,SSE,11.5,-,N/A,,Clear,160,2013-08-05 11:53:00
7:53 AM,75.0,59.0,57,29.90,10.0,South,11.5,-,N/A,,Clear,170,2013-08-05 12:53:00
8:53 AM,79.0,60.1,52,29.91,10.0,South,12.7,-,N/A,,Clear,170,2013-08-05 13:53:00
9:53 AM,84.0,60.1,44,29.90,10.0,South,12.7,18.4,N/A,,Clear,170,2013-08-05 14:53:00
10:53 AM,89.1,59.0,36,29.90,10.0,South,12.7,-,N/A,,Clear,170,2013-08-05 15:53:00
11:53 AM,93.0,57.0,30,29.88,10.0,SW,6.9,-,N/A,,Clear,220,2013-08-05 16:53:00
12:53 PM,95.0,55.9,27,29.87,10.0,SSW,8.1,-,N/A,,Clear,200,2013-08-05 17:53:00
1:53 PM,93.9,55.0,27,29.84,10.0,South,4.6,-,N/A,,Scattered Clouds,180,2013-08-05 18:53:00
2:53 PM,96.1,53.1,23,29.82,10.0,Variable,3.5,-,N/A,,Partly Cloudy,0,2013-08-05 19:53:00
3:53 PM,98.1,53.1,22,29.79,10.0,Variable,3.5,-,N/A,,Mostly Cloudy,0,2013-08-05 20:53:00
4:53 PM,98.1,52.0,21,29.76,10.0,SSE,4.6,-,N/A,,Partly Cloudy,160,2013-08-05 21:53:00
5:53 PM,97.0,55.9,25,29.75,10.0,SSE,11.5,18.4,N/A,,Overcast,150,2013-08-05 22:53:00
6:53 PM,96.1,55.0,25,29.75,10.0,SSE,11.5,-,N/A,,Mostly Cloudy,150,2013-08-05 23:53:00
7:53 PM,93.9,55.0,27,29.77,10.0,SE,8.1,-,N/A,,Mostly Cloudy,140,2013-08-06 00:53:00
8:53 PM,91.9,55.0,29,29.78,10.0,SE,15.0,20.7,N/A,,Clear,140,2013-08-06 01:53:00
9:53 PM,88.0,55.9,34,29.79,10.0,SSE,15.0,23.0,N/A,,Clear,150,2013-08-06 02:53:00
10:53 PM,87.1,55.0,33,29.79,10.0,SE,15.0,-,N/A,,Clear,140,2013-08-06 03:53:00
11:53 PM,84.9,55.0,36,29.79,10.0,SSE,16.1,24.2,N/A,,Clear,160,2013-08-06 04:53:00